TimeHST,TemperatureF,Dew PointF,Humidity,Sea Level PressureIn,VisibilityMPH,Wind Direction,Wind SpeedMPH,Gust SpeedMPH,PrecipitationIn,Events,Conditions,WindDirDegrees,DateUTC
12:06 AM,62.6,55.4,77,29.98,10.0,West,4.6,-,N/A,,Overcast,270,2012-02-08 10:06:00
12:53 AM,61.0,55.0,81,29.98,10.0,WSW,8.1,-,N/A,,Partly Cloudy,240,2012-02-08 10:53:00
1:53 AM,63.0,53.1,70,29.99,10.0,WSW,3.5,-,N/A,,Mostly Cloudy,240,2012-02-08 11:53:00
2:53 AM,63.0,51.1,65,29.99,10.0,West,4.6,-,N/A,,Mostly Cloudy,280,2012-02-08 12:53:00
3:53 AM,59.0,52.0,78,29.98,10.0,WSW,9.2,-,N/A,,Scattered Clouds,250,2012-02-08 13:53:00
4:53 AM,61.0,53.1,75,29.99,10.0,WSW,3.5,-,N/A,,Overcast,240,2012-02-08 14:53:00
5:53 AM,64.0,54.0,70,30.01,10.0,NNW,12.7,23.0,N/A,,Overcast,330,2012-02-08 15:53:00
6:53 AM,66.0,52.0,60,30.02,10.0,NNW,9.2,-,N/A,,Overcast,340,2012-02-08 16:53:00
7:53 AM,66.0,48.9,54,30.05,10.0,NNW,12.7,-,N/A,,Mostly Cloudy,340,2012-02-08 17:53:00
8:53 AM,70.0,51.1,51,30.06,10.0,NW,13.8,-,N/A,,Mostly Cloudy,310,2012-02-08 18:53:00
9:53 AM,72.0,52.0,49,30.07,10.0,NW,6.9,-,N/A,,Mostly Cloudy,310,2012-02-08 19:53:00
10:53 AM,73.0,54.0,51,30.09,10.0,NNW,13.8,-,N/A,,Mostly Cloudy,330,2012-02-08 20:53:00
11:53 AM,73.0,55.0,53,30.08,10.0,North,9.2,-,N/A,,Overcast,10,2012-02-08 21:53:00
12:53 PM,73.0,52.0,48,30.07,10.0,NNW,12.7,-,N/A,,Mostly Cloudy,330,2012-02-08 22:53:00
1:53 PM,71.1,54.0,55,30.05,10.0,NNW,20.7,25.3,N/A,,Overcast,330,2012-02-08 23:53:00
2:53 PM,73.0,52.0,48,30.04,10.0,NW,15.0,-,N/A,,Scattered Clouds,320,2012-02-09 00:53:00
3:53 PM,71.1,53.1,53,30.04,10.0,North,17.3,-,N/A,,Mostly Cloudy,360,2012-02-09 01:53:00
4:53 PM,68.0,53.1,59,30.05,10.0,North,13.8,-,N/A,,Partly Cloudy,360,2012-02-09 02:53:00
5:53 PM,69.1,51.1,53,30.06,10.0,North,13.8,-,N/A,,Clear,360,2012-02-09 03:53:00
6:53 PM,66.0,50.0,56,30.07,10.0,North,6.9,-,N/A,,Clear,350,2012-02-09 04:53:00
7:53 PM,64.0,51.1,63,30.09,10.0,NW,5.8,-,N/A,,Clear,310,2012-02-09 05:53:00
8:53 PM,63.0,53.1,70,30.13,10.0,NW,4.6,-,N/A,,Mostly Cloudy,320,2012-02-09 06:53:00
9:53 PM,64.9,50.0,58,30.14,10.0,NNW,8.1,-,N/A,,Mostly Cloudy,340,2012-02-09 07:53:00
10:53 PM,64.9,50.0,58,30.15,10.0,NNW,8.1,-,N/A,,Mostly Cloudy,330,2012-02-09 08:53:00
11:53 PM,62.1,53.1,72,30.16,10.0,West,5.8,-,N/A,,Mostly Cloudy,280,2012-02-09 09:53:00